Location: Cactus School
(34.5700°N, 118.0931°W)
Time: 19:51:15
(UTC-08:00)

Hubble Space Telescope - Pass Details

Date: 15 November 2017
Orbit: 537 x 541 km, 28.5° (Epoch: 21 November)

Event Time Altitude Azimuth Distance (km) Brightness Sun altitude
Exits shadow 05:07:09 - 213° (SSW) 2,352 3.8 -16.4°
Reaches altitude 10° 05:09:14 10° 195° (SSW) 1,777 3.4 -16.0°
Maximum altitude 05:11:37 15° 159° (SSE) 1,484 3.4 -15.5°
Drops below altitude 10° 05:14:00 10° 124° (SE) 1,781 4.5 -15.0°
Sets 05:17:03 0° 101° (E) 2,674 6.3 -14.4°
